When you browse on this site, cookies collect data to enhance your experience and personalize the content and advertising you see.
Visit our Privacy Policy to learn more. By continuing to use the site, you agree to this use of cookies and data.
  • In Austria
  • List of Countries
  • For 7 days
  • Water Temperature
  • Satellite Maps
  • Weather Map
  • News
  • Weather Widgets
  • user-avatar
    Login

    Hourly Weather Perth

    Today, 26 May, Sunday

    Time Temperature Precipitation Wind Pressure Humidity
    00:00 +14°C° 0 mm 3 mps 767 mmHg 70%
    01:00 +13°C° 0 mm 3 mps 767 mmHg 71%
    02:00 +13°C° 0 mm 3 mps 767 mmHg 72%
    03:00 +13°C° 0 mm 3 mps 767 mmHg 72%
    04:00 +13°C° 0 mm 3 mps 767 mmHg 72%
    05:00 +13°C° 0 mm 3 mps 767 mmHg 72%
    06:00 +13°C° 0 mm 4 mps 767 mmHg 71%
    07:00 +13°C° 0 mm 4 mps 767 mmHg 70%
    08:00 +13°C° 0 mm 4 mps 767 mmHg 69%
    09:00 +15°C° 0 mm 4 mps 767 mmHg 62%
    10:00 +18°C° 0 mm 4 mps 767 mmHg 55%
    11:00 +20°C° 0 mm 4 mps 767 mmHg 48%
    12:00 +21°C° 0 mm 4 mps 767 mmHg 45%
    13:00 +22°C° 0 mm 4 mps 766 mmHg 43%
    14:00 +22°C° 0 mm 3 mps 766 mmHg 40%
    15:00 +22°C° 0 mm 3 mps 766 mmHg 43%
    16:00 +21°C° 0 mm 3 mps 766 mmHg 45%
    17:00 +20°C° 0 mm 3 mps 766 mmHg 48%
    18:00 +19°C° 0 mm 4 mps 766 mmHg 50%
    19:00 +18°C° 0 mm 4 mps 767 mmHg 52%
    20:00 +17°C° 0 mm 4 mps 767 mmHg 54%
    21:00 +16°C° 0 mm 5 mps 767 mmHg 54%
    22:00 +16°C° 0 mm 5 mps 767 mmHg 54%
    23:00 +15°C° 0 mm 5 mps 767 mmHg 54%

    Tomorrow, 27 May, Monday

    Time Temperature Precipitation Wind Pressure Humidity
    00:00 +15°C° 0 mm 5 mps 767 mmHg 55%
    01:00 +15°C° 0 mm 5 mps 767 mmHg 56%
    02:00 +14°C° 0 mm 6 mps 767 mmHg 57%
    03:00 +14°C° 0 mm 6 mps 767 mmHg 59%
    04:00 +14°C° 0 mm 6 mps 767 mmHg 61%
    05:00 +13°C° 0 mm 6 mps 767 mmHg 63%
    06:00 +13°C° 0 mm 6 mps 767 mmHg 63%
    07:00 +13°C° 0 mm 6 mps 767 mmHg 63%
    08:00 +13°C° 0 mm 6 mps 768 mmHg 64%
    09:00 +15°C° 0 mm 6 mps 768 mmHg 58%
    10:00 +17°C° 0 mm 6 mps 768 mmHg 52%
    11:00 +20°C° 0 mm 5 mps 767 mmHg 46%
    12:00 +21°C° 0 mm 5 mps 767 mmHg 43%
    13:00 +22°C° 0 mm 5 mps 766 mmHg 41%
    14:00 +23°C° 0 mm 5 mps 765 mmHg 38%
    15:00 +22°C° 0 mm 4 mps 765 mmHg 40%
    16:00 +21°C° 0 mm 4 mps 765 mmHg 41%
    17:00 +21°C° 0 mm 4 mps 765 mmHg 43%
    18:00 +20°C° 0 mm 4 mps 765 mmHg 44%
    19:00 +19°C° 0 mm 5 mps 766 mmHg 45%
    20:00 +17°C° 0 mm 5 mps 766 mmHg 46%
    21:00 +17°C° 0 mm 5 mps 766 mmHg 46%
    22:00 +17°C° 0 mm 5 mps 766 mmHg 45%
    23:00 +17°C° 0 mm 6 mps 766 mmHg 45%

    Day after tomorrow, 28 May, Tuesday

    Time Temperature Precipitation Wind Pressure Humidity
    00:00 +16°C° 0 mm 6 mps 766 mmHg 46%
    01:00 +16°C° 0 mm 6 mps 766 mmHg 46%
    02:00 +16°C° 0 mm 6 mps 766 mmHg 47%
    03:00 +15°C° 0 mm 6 mps 765 mmHg 48%
    04:00 +15°C° 0 mm 6 mps 765 mmHg 49%
    05:00 +15°C° 0 mm 6 mps 765 mmHg 51%
    06:00 +15°C° 0 mm 6 mps 765 mmHg 50%
    07:00 +15°C° 0 mm 6 mps 766 mmHg 50%
    08:00 +15°C° 0 mm 6 mps 766 mmHg 50%
    09:00 +17°C° 0 mm 6 mps 766 mmHg 46%
    10:00 +20°C° 0 mm 6 mps 765 mmHg 42%
    11:00 +22°C° 0 mm 6 mps 765 mmHg 38%
    12:00 +23°C° 0 mm 6 mps 765 mmHg 36%
    13:00 +24°C° 0 mm 6 mps 764 mmHg 35%
    14:00 +25°C° 0 mm 5 mps 763 mmHg 33%
    15:00 +25°C° 0 mm 5 mps 763 mmHg 34%
    16:00 +23°C° 0 mm 4 mps 763 mmHg 35%
    17:00 +22°C° 0 mm 4 mps 763 mmHg 36%
    18:00 +22°C° 0 mm 5 mps 763 mmHg 36%
    19:00 +21°C° 0 mm 5 mps 764 mmHg 35%
    20:00 +20°C° 0 mm 6 mps 764 mmHg 35%
    21:00 +20°C° 0 mm 6 mps 764 mmHg 34%
    22:00 +20°C° 0 mm 6 mps 764 mmHg 34%
    23:00 +20°C° 0 mm 7 mps 764 mmHg 34%

    29 May, Wednesday

    Time Temperature Precipitation Wind Pressure Humidity
    00:00 +19°C° 0 mm 6 mps 764 mmHg 35%
    01:00 +19°C° 0 mm 6 mps 764 mmHg 36%
    02:00 +19°C° 0 mm 6 mps 764 mmHg 37%
    03:00 +17°C° 0 mm 6 mps 764 mmHg 38%
    04:00 +17°C° 0 mm 7 mps 764 mmHg 38%
    05:00 +17°C° 0 mm 7 mps 764 mmHg 38%
    06:00 +17°C° 0 mm 7 mps 764 mmHg 39%
    07:00 +17°C° 0 mm 7 mps 764 mmHg 40%
    08:00 +17°C° 0 mm 7 mps 765 mmHg 41%
    09:00 +18°C° 0 mm 7 mps 765 mmHg 39%
    10:00 +21°C° 0 mm 7 mps 764 mmHg 37%
    11:00 +22°C° 0 mm 7 mps 764 mmHg 35%
    12:00 +24°C° 0 mm 6 mps 764 mmHg 34%
    13:00 +26°C° 0 mm 6 mps 763 mmHg 33%
    14:00 +27°C° 0 mm 5 mps 762 mmHg 32%
    15:00 +26°C° 0 mm 5 mps 762 mmHg 33%
    16:00 +26°C° 0 mm 4 mps 762 mmHg 35%
    17:00 +25°C° 0 mm 4 mps 762 mmHg 36%
    18:00 +25°C° 0 mm 5 mps 762 mmHg 36%
    19:00 +23°C° 0 mm 5 mps 762 mmHg 36%
    20:00 +23°C° 0 mm 6 mps 762 mmHg 36%
    21:00 +22°C° 0 mm 6 mps 762 mmHg 37%
    22:00 +22°C° 0 mm 6 mps 762 mmHg 37%
    23:00 +22°C° 0 mm 6 mps 762 mmHg 37%

    30 May, Thursday

    Time Temperature Precipitation Wind Pressure Humidity
    00:00 +22°C° 0 mm 6 mps 762 mmHg 38%
    01:00 +21°C° 0 mm 6 mps 762 mmHg 38%
    02:00 +21°C° 0 mm 6 mps 762 mmHg 38%
    03:00 +21°C° 0 mm 6 mps 762 mmHg 38%
    04:00 +22°C° 0 mm 6 mps 762 mmHg 37%
    05:00 +22°C° 0 mm 5 mps 762 mmHg 37%
    06:00 +22°C° 0 mm 5 mps 762 mmHg 38%
    07:00 +21°C° 0 mm 5 mps 762 mmHg 39%
    08:00 +21°C° 0 mm 5 mps 763 mmHg 40%
    09:00 +22°C° 0 mm 5 mps 763 mmHg 40%
    10:00 +23°C° 0 mm 5 mps 763 mmHg 40%
    11:00 +24°C° 0 mm 6 mps 763 mmHg 40%
    12:00 +25°C° 0 mm 5 mps 763 mmHg 43%
    13:00 +25°C° 0 mm 5 mps 763 mmHg 45%
    14:00 +25°C° 0 mm 4 mps 762 mmHg 48%
    15:00 +23°C° 0.1 mm 4 mps 763 mmHg 52%
    16:00 +23°C° 0.1 mm 4 mps 763 mmHg 56%
    17:00 +23°C° 0.1 mm 4 mps 763 mmHg 60%
    18:00 +22°C° 0 mm 3 mps 764 mmHg 67%
    19:00 +21°C° 0 mm 3 mps 764 mmHg 74%
    20:00 +20°C° 0 mm 2 mps 765 mmHg 81%
    21:00 +20°C° 0.1 mm 2 mps 765 mmHg 84%
    22:00 +19°C° 0.1 mm 2 mps 765 mmHg 86%
    23:00 +19°C° 0.1 mm 2 mps 766 mmHg 89%

    31 May, Friday

    Time Temperature Precipitation Wind Pressure Humidity
    00:00 +19°C° 0.3 mm 2 mps 766 mmHg 89%
    01:00 +20°C° 0.3 mm 1 mps 766 mmHg 89%
    02:00 +19°C° 0.3 mm 1 mps 766 mmHg 89%
    03:00 +19°C° 0 mm 1 mps 766 mmHg 89%
    04:00 +19°C° 0 mm 1 mps 767 mmHg 90%
    05:00 +18°C° 0 mm 2 mps 767 mmHg 91%
    06:00 +19°C° 0 mm 1 mps 767 mmHg 90%
    07:00 +19°C° 0 mm 1 mps 768 mmHg 89%
    08:00 +19°C° 0 mm 1 mps 768 mmHg 88%
    09:00 +21°C° 0 mm 1 mps 768 mmHg 80%
    10:00 +22°C° 0 mm 1 mps 768 mmHg 71%
    11:00 +24°C° 0 mm 1 mps 768 mmHg 63%
    12:00 +25°C° 0.1 mm 2 mps 768 mmHg 61%
    13:00 +25°C° 0.1 mm 2 mps 768 mmHg 60%
    14:00 +25°C° 0.1 mm 2 mps 767 mmHg 58%
    15:00 +25°C° 0.1 mm 2 mps 767 mmHg 62%
    16:00 +24°C° 0.1 mm 2 mps 768 mmHg 67%
    17:00 +23°C° 0.1 mm 2 mps 768 mmHg 71%
    18:00 +21°C° 0 mm 2 mps 768 mmHg 74%
    19:00 +20°C° 0 mm 2 mps 769 mmHg 77%
    20:00 +19°C° 0 mm 2 mps 769 mmHg 81%
    21:00 +19°C° 0 mm 2 mps 769 mmHg 80%
    22:00 +18°C° 0 mm 2 mps 769 mmHg 79%
    23:00 +18°C° 0 mm 2 mps 770 mmHg 79%
    Show more